Location: *
(23.5860°S, 65.4036°W)
Time: 17:55:57
(UTC+00:00)

Daily predictions for brighter satellites

Satellite Brightness Start Highest point End
(mag) Time Altitude Azimuth Time Altitude Azimuth Time Altitude Azimuth
Gbstr 26 Del rocket 3.5 22:25:39 10° NW 22:29:17 51° SW 22:33:11 10° SSE
CZ-4 R/B 2.8 22:30:06 10° SE 22:33:00 19° E 22:35:52 10° NE
Cosmos 1898 Rocket 4.0 22:29:30 10° S 22:34:31 39° ESE 22:39:28 10° NE
USA 81 4.1 22:29:26 10° N 22:34:39 68° E 22:39:56 10° S
Cosmos 841 Rocket 3.5 22:29:50 10° NNW 22:35:06 86° ENE 22:40:26 10° SSE
Cosmos 2082 Rocket 3.2 22:31:57 10° SSE 22:36:29 24° ESE 22:40:58 10° ENE
Cosmos 1862 Rocket 4.4 22:34:27 10° NNE 22:38:21 30° E 22:42:16 10° SSE
Cosmos 1428 Rocket 4.4 22:40:09 10° N 22:46:17 74° E 22:52:27 10° S
CZ-3 Stage 3 4.3 22:19:16 10° WSW 22:48:43 55° NW 22:54:17 10° NE
ADEOS Rocket 4.5 22:43:17 10° ENE 22:49:05 25° ESE 22:55:03 10° SSE
ERBS 4.2 22:48:33 10° SSE 22:50:32 15° SE 22:51:12 14° ESE
Meteor 1-10 Rocket 4.3 22:45:05 10° N 22:50:53 68° E 22:56:39 10° SSE
SWIFT 4.0 22:50:43 10° WNW 22:54:21 28° NNW 22:57:58 10° NE
DELTA 2 R/B(2) 4.5 22:52:33 10° SSW 22:54:45 30° SSE 22:55:44 22° ESE
YAOGAN 6 3.7 22:52:11 10° SE 22:55:04 23° E 22:57:53 10° NNE
ASC 2 Rocket 3.0 22:57:28 10° WNW 23:02:19 74° N 23:04:54 22° E
Mugunghwa Rocket 4.2 22:56:04 10° W 23:02:37 70° S 23:08:00 19° ESE
CSL-04 Rocket 4.1 22:57:48 10° SSE 23:02:41 36° E 23:07:30 10° NNE
Cosmos 2369 Rocket 2.8 22:57:57 10° NNE 23:02:51 33° ENE 23:07:45 10° SE
CZ-4C R/B 2.5 23:00:00 10° S 23:04:33 32° ESE 23:07:09 19° ENE
Meteor 1-27 Rocket 3.8 22:59:38 10° NNE 23:04:59 49° E 23:10:21 10° SSE
NOSS 3-2 (A) 4.2 22:56:39 10° N 23:05:04 60° ENE 23:13:04 10° SE
Centaur AC-64 2.1 22:59:21 10° W 23:05:37 87° N 23:06:52 28° E
Cosmos 1553 Rocket 4.3 23:00:22 10° SSE 23:06:06 40° E 23:11:50 10° NNE
Fermi 3.7 23:04:29 10° W 23:08:38 87° N 23:10:58 25° ENE
Cosmos 1315 Rocket 4.0 23:05:26 10° NE 23:08:24 23° E 23:08:24 23° E
Cosmos 990 Rocket 4.0 23:04:54 10° SSW 23:10:13 86° ESE 23:15:28 10° NNE
Cosmos 1602 3.6 23:07:02 10° S 23:10:58 87° E 23:14:48 10° N
CENTAUR R/B 3.9 23:06:09 10° NNE 23:13:14 29° ENE 23:16:49 21° ESE
TRAILBLAZER 4.4 23:08:58 10° NNW 23:13:24 77° ENE 23:17:26 12° SSE
Cosmos 540 Rocket 4.5 23:08:29 10° NNW 23:13:28 48° WSW 23:18:28 10° S
CZ-2C R/B 3.8 23:10:28 10° N 23:14:55 75° WNW 23:19:24 10° SSW
Cosmos 1937 Rocket 3.4 23:09:58 10° S 23:15:13 73° ESE 23:20:27 10° NNE
SJ 16-02 1.2 23:11:46 10° S 23:16:09 64° ESE 23:20:30 10° NNE
BREEZE-M DEB (TANK) 4.1 23:14:00 10° WNW 23:16:51 46° SW 23:24:48 10° SE
BREEZE-M DEB (TANK) 4.1 23:21:09 10° NNW 23:25:24 56° ENE 23:43:23 10° SE
S3M 4.1 23:27:07 10° S 23:33:26 56° E 23:39:38 10° NNE
Cosmos 1655 Rocket 4.2 23:27:50 10° N 23:34:09 74° W 23:40:37 10° S
YAOGAN 1 2.5 23:30:58 10° S 23:35:21 88° WSW 23:39:41 10° NNW
GPS 2-14 Rocket1 3.1 23:31:52 10° WNW 23:35:40 47° N 23:36:01 45° NNE
Envisat 3.4 23:31:11 10° S 23:36:15 62° WSW 23:41:15 10° NNW
Ariane H10+ 4.1 23:27:37 10° WNW 23:36:19 19° NNW 23:39:37 11° NNE
Cosmos 1943 Rocket 2.1 23:33:25 10° NNW 23:39:03 88° ENE 23:44:39 11° SSE
Cosmos 1812 3.4 23:39:27 10° NNW 23:43:13 54° W 23:47:02 10° S
Cosmos 2242 Rocket 4.3 23:39:46 10° NNW 23:44:06 55° W 23:48:28 10° S
GPS 2-17 Rocket1 3.5 23:44:20 10° WNW 23:48:44 48° N 23:48:48 48° N
Cosmos 1733 Rocket 3.7 23:48:20 10° SSW 23:52:39 54° W 23:56:52 10° N
Cosmos 2150 Rocket 3.8 23:47:42 10° S 23:52:46 68° ESE 23:52:46 68° ESE
